DW7857 Weather Reports


time (UTC)temp
F
wind
direction
speed
knots
gust
knots
rain 1hr
in
rain 24hr
in
rain mn
in
humidity
%
barometer
mb
20260903182703 69 212 5.2 7.8 0.00 0.00 0.00 82 1012.5
20260903181803 70 199 5.2 7.0 0.00 0.00 0.00 81 1012.9
20260903180903 70 186 6.1 7.8 0.00 0.00 0.00 80 1012.6
20260903180003 71 200 6.1 7.0 0.00 0.00 0.00 78 1012.2
20260903175403 71 219 7.0 8.7 0.00 0.00 0.00 77 1012.3
20260903174503 72 181 6.1 9.6 0.00 0.00 0.00 77 1012.4
20260903173818 72 196 6.1 9.6 0.00 0.00 0.00 77 1012.7
20260903172703 72 201 6.1 7.8 0.00 0.00 0.00 75 1012.6
20260903171803 73 230 6.1 9.6 0.00 0.00 0.00 73 1012.2
20260903170903 73 182 5.2 9.6 0.00 0.00 0.00 73 1012.5
20260903170003 73 178 6.1 10.4 0.00 0.00 0.00 72 1012.5
20260903165403 73 191 5.2 7.0 0.00 0.00 0.00 73 1012.5
20260903164503 73 173 5.2 9.6 0.00 0.00 0.00 72 1012.6
20260903163603 76 180 5.2 5.2 0.00 0.00 0.00 66 1013.1
20260903162703 76 180 5.2 5.2 0.00 0.00 0.00 66 1013.1
20260903161803 76 180 5.2 5.2 0.00 0.00 0.00 66 1013.1
20260903160903 76 192 5.2 6.1 0.00 0.00 0.00 66 1013.1
20260903160003 77 275 5.2 7.0 0.00 0.00 0.00 66 1013.0
20260903155617 78 312 6.1 7.0 0.00 0.00 0.00 66 1012.8
20260903154503 80 315 7.0 7.0 0.00 0.00 0.00 55 1013.1
20260903153603 80 275 7.8 8.7 0.00 0.00 0.00 55 1013.1
20260903152703 79 283 7.0 8.7 0.00 0.00 0.00 55 1013.1
20260903152018 79 173 5.2 7.8 0.00 0.00 0.00 55 1013.0
20260903151117 78 185 4.3 5.2 0.00 0.00 0.00 59 1013.4
20260903150003 78 264 6.1 9.6 0.00 0.00 0.00 56 1013.4
20260903145403 78 237 4.3 7.0 0.00 0.00 0.00 60 1013.2
20260903144717 77 214 6.1 7.0 0.00 0.00 0.00 59 1013.4
20260903143603 78 246 7.8 11.3 0.00 0.00 0.00 58 1013.3
20260903142703 78 274 7.0 11.3 0.00 0.00 0.00 57 1013.6
20260903141803 77 307 6.1 9.6 0.00 0.00 0.00 60 1013.6
20260903140903 77 303 7.0 9.6 0.00 0.00 0.00 60 1013.6
20260903140003 77 314 7.8 13.0 0.00 0.00 0.00 59 1013.6
20260903135403 77 337 7.0 10.4 0.00 0.00 0.00 60 1013.6
20260903134503 76 322 7.0 8.7 0.00 0.00 0.00 61 1013.6
20260903133603 77 254 7.8 11.3 0.00 0.00 0.00 60 1013.7
20260903132918 77 262 7.8 13.0 0.00 0.00 0.00 59 1013.6
20260903131803 77 256 7.0 9.6 0.00 0.00 0.00 60 1013.8
20260903130903 77 271 7.0 8.7 0.00 0.00 0.00 61 1013.5
20260903130003 76 269 5.2 8.7 0.00 0.00 0.00 63 1013.8
20260903125403 76 269 5.2 8.7 0.00 0.00 0.00 66 1013.5
20260903124503 76 70 4.3 7.0 0.00 0.00 0.00 69 1013.5
20260903123603 76 189 4.3 7.0 0.00 0.00 0.00 71 1013.5
20260903122703 75 188 2.6 4.3 0.00 0.00 0.00 75 1013.9
20260903121803 73 181 3.5 6.1 0.00 0.00 0.00 74 1013.8
20260903120903 73 206 3.5 6.1 0.00 0.00 0.00 73 1013.9
20260903120003 74 192 4.3 7.0 0.00 0.00 0.00 73 1013.7
20260903115617 74 248 5.2 7.0 0.00 0.00 0.00 73 1013.7
20260903114503 73 263 2.6 5.2 0.00 0.01 0.00 73 1013.9
20260903113603 72 10 1.7 3.5 0.00 0.02 0.00 76 1013.9
20260903112703 71 353 3.5 7.0 0.00 0.02 0.00 80 1013.8
20260903112016 71 326 5.2 7.0 0.00 0.02 0.00 78 1013.9
20260903110903 72 315 5.2 7.0 0.00 0.02 0.00 76 1013.8
20260903110003 72 325 5.2 7.0 0.00 0.02 0.00 74 1013.8
20260903105403 72 314 7.0 11.3 0.00 0.02 0.00 70 1013.8
20260903104718 73 243 7.0 11.3 0.00 0.02 0.00 70 1013.9
20260903103603 74 292 4.3 7.0 0.00 0.02 0.00 68 1014.0
20260903102703 74 246 4.3 7.0 0.00 0.02 0.00 69 1013.7
20260903101803 74 268 4.3 7.0 0.00 0.02 0.00 71 1013.7
20260903100903 73 32 4.3 7.8 0.00 0.02 0.00 73 1013.8
20260903100003 72 341 5.2 7.8 0.00 0.02 0.00 75 1013.7
20260903095403 72 323 3.5 6.1 0.00 0.02 0.00 76 1013.9
20260903094718 72 276 3.5 5.2 0.00 0.02 0.00 76 1013.8
20260903093603 71 203 4.3 7.8 0.00 0.02 0.00 77 1013.8
20260903092703 71 185 3.5 5.2 0.00 0.02 0.00 78 1013.9
20260903092018 70 335 3.5 6.1 0.00 0.02 0.00 79 1013.9
20260903090903 69 179 5.2 7.8 0.00 0.02 0.00 80 1014.0
20260903090003 69 211 3.5 4.3 0.00 0.02 0.00 79 1014.0
20260903085403 69 244 3.5 4.3 0.00 0.02 0.00 79 1014.0
20260903084503 69 188 2.6 4.3 0.00 0.02 0.00 80 1014.1
20260903083603 68 196 3.5 7.0 0.00 0.02 0.00 80 1013.8
20260903082703 68 217 4.3 7.0 0.00 0.02 0.00 80 1014.0
20260903081803 68 216 3.5 7.0 0.00 0.02 0.00 80 1013.9
20260903080903 68 278 5.2 9.6 0.00 0.02 0.00 78 1013.8
20260903080003 69 190 4.3 9.6 0.00 0.04 0.00 77 1013.9
20260903075403 69 126 4.3 9.6 0.00 0.04 0.00 77 1013.7
20260903074503 69 257 4.3 9.6 0.00 0.04 0.00 78 1013.7
20260903073603 69 203 3.5 4.3 0.00 0.04 0.00 80 1013.4
20260903072703 68 13 3.5 5.2 0.00 0.05 0.00 82 1013.5
20260903072017 67 288 3.5 5.2 0.00 0.05 0.00 84 1013.4
20260903070903 67 252 4.3 8.7 0.00 0.05 0.00 90 1013.6
20260903070218 66 255 3.5 7.0 0.00 0.05 0.00 93 1013.3
20260903065403 65 196 2.6 7.0 0.00 0.05 0.00 94 1013.3
20260903064716 65 199 3.5 7.0 0.00 0.05 0.00 94 1013.2
20260903063603 65 193 0.9 2.6 0.00 0.05 0.00 93 1013.4
20260903062703 65 174 1.7 2.6 0.00 0.05 0.00 93 1013.3
20260903062017 65 184 2.6 4.3 0.00 0.05 0.00 92 1013.0
20260903060903 65 184 2.6 3.5 0.00 0.05 0.00 92 1013.0
20260903060003 65 206 2.6 4.3 0.00 0.05 0.00 92 1013.2
20260903055403 65 165 1.7 2.6 0.00 0.05 0.00 92 1013.3
20260903054503 65 140 2.6 3.5 0.00 0.05 0.00 92 1013.4
20260903053603 65 142 2.6 3.5 0.00 0.05 0.00 91 1013.2
20260903052703 65 190 1.7 5.2 0.00 0.05 0.00 91 1013.1
20260903051803 65 154 1.7 4.3 0.00 0.05 0.00 90 1013.0
20260903050903 65 249 1.7 3.5 0.00 0.05 0.00 90 1013.1
20260903050003 65 153 2.6 4.3 0.00 0.05 0.00 90 1012.7
20260903045403 65 143 2.6 5.2 0.00 0.05 0.00 91 1012.9
20260903044503 65 243 3.5 6.1 0.00 0.05 0.00 92 1012.8
20260903043603 65 258 2.6 6.1 0.00 0.05 0.00 93 1012.6
20260903042703 65 183 3.5 5.2 0.00 0.05 0.00 94 1012.6
20260903041803 65 173 2.6 4.3 0.00 0.05 0.00 95 1012.6
20260903040903 64 156 2.6 3.5 0.00 0.05 0.00 96 1012.5
20260903040003 64 190 1.7 3.5 0.00 0.05 0.00 96 1012.6
20260903035403 64 171 1.7 3.5 0.00 0.05 0.00 96 1013.1
20260903034717 64 149 1.7 3.5 0.00 0.05 0.00 96 1012.8
20260903033603 64 173 2.6 3.5 0.00 0.05 0.00 95 1012.6
20260903032703 64 176 3.5 5.2 0.00 0.05 0.00 95 1012.9
20260903031803 64 172 3.5 4.3 0.00 0.05 0.00 95 1012.7
20260903030903 64 143 2.6 3.5 0.00 0.05 0.00 95 1012.8
20260903030003 64 163 2.6 3.5 0.00 0.05 0.00 95 1012.8
20260903025403 64 172 2.6 3.5 0.00 0.05 0.00 95 1012.6
20260903024503 64 175 2.6 3.5 0.00 0.05 0.00 95 1012.7
20260903023603 64 169 1.7 3.5 0.00 0.05 0.00 95 1012.9
20260903022703 64 167 2.6 3.5 0.00 0.05 0.00 95 1012.8
20260903021803 64 195 4.3 7.0 0.00 0.05 0.00 95 1012.6
20260903021116 64 160 4.3 6.1 0.00 0.05 0.00 95 1012.9
20260903020218 64 171 3.5 4.3 0.00 0.05 0.00 95 1012.8
20260903015403 64 104 2.6 3.5 0.00 0.05 0.00 95 1012.7
20260903014503 64 182 3.5 6.1 0.00 0.05 0.00 95 1012.5
20260903013603 64 173 2.6 3.5 0.00 0.05 0.00 95 1012.9
20260903012703 64 150 3.5 5.2 0.00 0.05 0.00 95 1012.7
20260903012017 64 147 3.5 5.2 0.00 0.05 0.00 95 1012.9
20260903010903 64 156 1.7 2.6 0.00 0.05 0.00 95 1012.7
20260903010003 64 154 1.7 3.5 0.00 0.05 0.00 95 1012.8
20260903005403 64 148 2.6 5.2 0.00 0.05 0.00 95 1012.7
20260903004503 64 148 2.6 3.5 0.00 0.05 0.00 94 1012.9
20260903003818 64 157 3.5 4.3 0.00 0.05 0.00 94 1013.1
20260903002917 64 159 2.6 3.5 0.00 0.05 0.00 94 1013.0
20260903001803 64 180 2.6 3.5 0.00 0.05 0.00 94 1013.1
20260903000903 64 146 2.6 3.5 0.00 0.05 0.00 93 1012.8
20260903000003 64 162 1.7 4.3 0.00 0.05 0.00 93 1013.0
20260902235403 64 146 2.6 4.3 0.00 0.05 0.00 93 1013.1
20260902234503 64 151 1.7 2.6 0.00 0.05 0.00 93 1013.3
20260902233603 64 165 1.7 1.7 0.00 0.05 0.00 93 1013.2
20260902232703 64 170 1.7 3.5 0.00 0.05 0.00 93 1013.3
20260902232018 64 146 1.7 3.5 0.00 0.05 0.00 93 1013.1
20260902230903 64 170 2.6 3.5 0.00 0.05 0.00 93 1013.3
20260902230003 64 167 2.6 3.5 0.00 0.05 0.00 94 1012.9
20260902225403 64 162 1.7 3.5 0.00 0.05 0.05 94 1012.9
20260902224503 64 163 2.6 3.5 0.00 0.05 0.05 95 1013.1
20260902223603 64 164 2.6 3.5 0.00 0.05 0.05 95 1013.3
20260902222703 64 178 2.6 6.1 0.00 0.05 0.05 95 1013.3
20260902221803 64 165 2.6 4.3 0.00 0.05 0.05 96 1013.1
20260902220903 64 161 1.7 3.5 0.00 0.05 0.05 96 1013.7
20260902220003 64 172 0.9 2.6 0.00 0.05 0.05 96 1013.5
20260902215403 64 156 0.9 3.5 0.00 0.05 0.05 96 1013.3
20260902214717 64 154 1.7 3.5 0.00 0.05 0.05 96 1013.2
20260902213816 64 135 1.7 2.6 0.00 0.05 0.05 96 1013.5
20260902212703 64 109 2.6 3.5 0.00 0.05 0.05 96 1013.2
20260902211803 64 133 1.7 3.5 0.00 0.05 0.05 96 1013.0
20260902210903 64 177 2.6 3.5 0.00 0.05 0.05 96 1013.1
20260902210003 64 167 3.5 4.3 0.00 0.05 0.05 95 1013.0
20260902205403 64 165 3.5 4.3 0.00 0.05 0.05 95 1013.1
20260902204503 64 160 2.6 3.5 0.00 0.05 0.05 95 1012.8
20260902203603 64 175 2.6 3.5 0.00 0.05 0.05 94 1013.3
20260902202703 64 145 2.6 4.3 0.00 0.05 0.05 94 1013.0
20260902201803 64 155 2.6 3.5 0.00 0.05 0.05 94 1013.1
20260902201118 64 157 2.6 4.3 0.00 0.05 0.05 94 1013.0
20260902200003 64 170 2.6 5.2 0.00 0.05 0.05 93 1013.0
20260902195403 64 188 3.5 4.3 0.00 0.05 0.05 93 1012.9
20260902194503 64 207 2.6 3.5 0.00 0.05 0.05 93 1012.8
20260902193818 64 233 3.5 4.3 0.00 0.05 0.05 92 1012.8
20260902192703 65 179 4.3 7.0 0.00 0.05 0.05 92 1012.6
20260902192016 65 190 4.3 6.1 0.00 0.05 0.05 91 1012.5
20260902191118 65 159 5.2 7.0 0.00 0.05 0.05 90 1012.5
20260902190003 65 183 5.2 7.0 0.00 0.05 0.05 90 1012.4
20260902185403 66 176 4.3 7.0 0.00 0.05 0.05 90 1012.3
20260902184503 66 165 4.3 7.0 0.00 0.05 0.05 89 1012.5
20260902183603 66 172 5.2 7.8 0.00 0.05 0.05 89 1012.4